Flag Weather past 2 weeks in Springfield, Massachusetts, U.S.A.

Now
30 °F

Overcast.


Feels Like: 26 °F
Forecast: 20 / 33 °F
Wind: 3 mph from Northeast

Location: Barnes Municipal Airport

Current Time: Nov 28, 2014 at 1:25:11 AM

Latest Report: Nov 28, 2014 at 12:53 AM


Visibility: 10 mi

Pressure: 30.03 "Hg

Humidity: 89%

Dew point: 27 °F

Location of SpringfieldLocation

Historic Weather in Springfield — Graph

°F

Springfield temperature yesterday

Maximum temperature yesterday: 35 °F (at 11:53 AM)
Minimum temperature yesterday: 30 °F (at 10:53 PM)
Average temperature yesterday: 33 °F

Past Weeks' High & Low Weather Summary

 TemperatureHumidityPressure
High65 °F (Nov 24, 12:53 PM)97% (Nov 13, 11:53 PM)30.47 "Hg (Nov 13, 11:53 PM)
Low16 °F (Nov 22, 6:53 AM)24% (Nov 19, 2:53 PM)29.47 "Hg (Nov 17, 8:53 PM)
Average36 °F63%30.02 "Hg
* Reported Nov 13 12:53 AM — Nov 28 12:02 AM, Springfield, Weather by CustomWeather, © 2014

Note: Actual official high and low records may vary slightly from our data, if they occured in-between our weather recording intervals... More about our weather records

Advertising

Springfield weather history for previous 24 hours

 ConditionsComfort  
Time TempWeatherWind HumidityBarometerVisibility
12:02 AM
Nov 28
30 °FLight snow. Ice fog.No wind89%30.02 "Hg6 mi
11:53 PM
Nov 27
30 °FLight snow. Ice fog.3 mph89%30.03 "Hg3 mi
10:53 PM30 °FOvercast.3 mph89%30.04 "Hg9 mi
9:53 PM31 °FLight snow. Ice fog.5 mph89%30.04 "Hg3 mi
8:53 PM31 °FLight snow. Ice fog.5 mph89%30.04 "Hg5 mi
7:53 PM32 °FLight snow. Ice fog.5 mph85%30.03 "Hg4 mi
6:53 PM32 °FIce fog.3 mph88%30.02 "Hg2 mi
5:53 PM33 °FMostly cloudy.No wind82%30.00 "Hg10 mi
4:53 PM33 °FMostly cloudy.3 mph82%29.99 "Hg10 mi
3:53 PM34 °FOvercast.8 mph76%29.98 "Hg10 mi
2:53 PM35 °FOvercast.6 mph72%29.97 "Hg10 mi
1:53 PM35 °FOvercast.7 mph70%29.97 "Hg10 mi
12:53 PM35 °FOvercast.7 mph75%29.97 "Hg10 mi
11:53 AM35 °FOvercast.7 mph72%29.98 "Hg10 mi
10:53 AM34 °FScattered clouds.3 mph79%29.99 "Hg10 mi
9:53 AM34 °FPassing clouds.No wind79%29.99 "Hg10 mi
8:53 AM33 °FPartly sunny.5 mph75%29.97 "Hg10 mi
7:53 AM31 °FSunny.No wind82%29.94 "Hg10 mi
6:53 AM31 °FPassing clouds.3 mph79%29.90 "Hg10 mi
5:53 AM32 °FPartly cloudy.5 mph82%29.89 "Hg10 mi
4:53 AM33 °FPassing clouds.6 mph82%29.87 "Hg10 mi
4:00 AM34 °FMostly cloudy.5 mph82%29.84 "Hg10 mi
2:53 AM33 °FLight snow. Fog.No wind92%29.84 "Hg5 mi
1:53 AM34 °FLight snow. Fog.5 mph92%29.82 "Hg4 mi
Weather by CustomWeather, © 2014

See weather overviewHow to use our weather pages